Regional Weather Roundup
Issued by NWS Sterling, VA

Home | Current Version | Previous Version | Text Only | Print | Product List | Glossary Off
Versions: 1 2 3 4 5 6 7 8 9 10 11 12 13 14 15 16 17 18 19 20 21 22 23 24 25 26 27 28 29 30 31 32 33 34 35 36 37 38 39 40 41 42 43 44 45 46 47 48 49 50

000
ASUS41 KLWX 082110
RWRLWX

REGIONAL WEATHER ROUNDUP
NATIONAL WEATHER SERVICE BALTIMORE MD/WASHINGTON DC
400 PM EST THU DEC 08 2016

Note: "FAIR" indicates few or no clouds below 12,000 feet
with no significant weather and/or obstructions to visibility.
 TC=TEMPERATURE CELSIUS

 * =Non NWS site. Station does not report precipitation (e.g. rain,
    snow, etc.), thunder, or fog.

DCZ001-MDZ009-015-VAZ040>042-051-053>054-082200-
WASHINGTON METRO

CITY           SKY/WX    TMP DP  RH WIND       PRES   REMARKS
WASHINGTON NAT MOCLDY    48  17  29 NW14G23   30.04R
DULLES         MOCLDY    44  16  32 NW17G28   30.04R
FT BELVOIR     CLOUDY    47  16  28 NW15      30.03R
QUANTICO       CLOUDY    47  22  37 NW9       30.06R
COLLEGE PARK*  PTCLDY    45  14  29 W17G26    30.02R
LEESBURG*      CLEAR     45  21  39 NW20G28   30.05R
MANASSAS*      CLEAR    N/A N/A N/A NW14G25   30.05R
GAITHERSBURG*  CLEAR     43  14  31 NW21G28   30.05R

$$

MDZ006>007-011-014-082200-
BALTIMORE METRO

CITY           SKY/WX    TMP DP  RH WIND       PRES   REMARKS
BWI AIRPORT    MOCLDY    45  17  32 W15G23    30.00R
MD SCIENCE CTR   N/A     47  15  27 MISG      29.99R
MARTIN STATE   MOCLDY    46  21  36 W18G24    30.01R
ANNAPOLIS      MOCLDY    48  19  31 W8G20     30.01R
FORT MEADE*    PTCLDY    45  18  33 W12G24    30.03R

$$

MDZ012-015-019>023-082200-
MARYLAND EASTERN SHORE

CITY           SKY/WX    TMP DP  RH WIND       PRES   REMARKS
OCEAN CITY     CLOUDY    43  36  76 W6        30.00R
SALISBURY      CLOUDY    44  38  79 W7        30.01R
BAY BRIDGE AP* MOCLDY    46  23  39 W10       30.01R
EASTON*        CLOUDY    46  21  36 NW9       30.04R

$$

MDZ017>025-082200-
SOUTHERN MARYLAND

CITY           SKY/WX    TMP DP  RH WIND       PRES   REMARKS
PATUXENT RIVER MOCLDY    47  23  38 NW16      30.02R
ST INIGOES     PTCLDY    48  27  44 NW14G21   30.02R
LEONARDTOWN*   NOT AVBL

$$

MDZ003>005-082200-
NORTH CENTRAL MARYLAND

CITY           SKY/WX    TMP DP  RH WIND       PRES   REMARKS
FREDERICK*     CLEAR     43  19  39 W15G23    30.06R
HAGERSTOWN APT CLEAR     40  16  37 W20       30.03R
WESTMINSTER*   CLEAR     39  16  38 W17G25    29.99R

$$

MDZ501>502-082200-
WESTERN MARYLAND

CITY           SKY/WX    TMP DP  RH WIND       PRES   REMARKS
OAKLAND*       CLOUDY    27  16  63 W8G25     29.99R WCI  18
CUMBERLAND*    NOT AVBL

$$

VAZ025>031-082200-
SHENANDOAH VALLEY

CITY           SKY/WX    TMP DP  RH WIND       PRES   REMARKS
WINCHESTER*    CLEAR     37  16  41 NW18G26   30.05R WCI  27
FRONT ROYAL*   FAIR      41  18  38 W8        30.04R
LURAY*         FAIR      43  18  36 W12G22    30.05R
NEW MARKET*    FAIR      42  13  31 W6        30.05R
STAUNTON*      CLEAR     41  13  32 W10       30.08R
WAYNESBORO*    FAIR      41   8  25 W8G21     30.05R

$$

WVZ021-048>050-054>055-082200-
EASTERN WEST VIRGINIA PANHANDLE

CITY           SKY/WX    TMP DP  RH WIND       PRES   REMARKS
MARTINSBURG    CLEAR     41  14  33 W16G26    30.04R
PETERSBURG*    CLEAR     39  15  38 W25G31    30.09R WCI  27

$$

VAZ036>039-050-082200-
CENTRAL FOOTHILLS

CITY           SKY/WX    TMP DP  RH WIND       PRES   REMARKS
CHARLOTTESVILL PTCLDY    47  15  27 W8G23     30.05R
CULPEPER*      PTCLDY    47  17  30 CALM      30.06R
ORANGE*          N/A     45  23  42 CALM      30.06R
GORDONSVILLE*  FAIR      44  22  42 SW5       30.05R
WARRENTON*     FAIR      46   8  20 NW8G16    30.04R

$$

VAZ055>057-082200-
NORTH AND CENTRAL PIEDMONT

CITY           SKY/WX    TMP DP  RH WIND       PRES   REMARKS
FREDERICKSBRG* CLOUDY    46  25  43 W9        30.04R
STAFFORD*      CLOUDY    44  25  46 W5        30.08R

$$

NCZ024-NYZ072-PAZ021-071-VAZ022-071-082200-
OTHER REGIONAL OBSERVATIONS

CITY           SKY/WX    TMP DP  RH WIND       PRES   REMARKS
NEW YORK CITY    N/A     45  18  33 MISG        N/A
PHILADELPHIA   MOCLDY    45  18  34 W14       29.97R
PITTSBURGH     FLURRIES  28  16  60 W15G24    30.13R WCI  16
ROANOKE        MOCLDY    44  12  27 W15G22    30.12R
RICHMOND       MOCLDY    48  16  27 NW16      30.05R
RALEIGH        MOCLDY    49  19  30 NW6       30.11R

$$

ANZ530>537-082200-
MARINE OBSERVATIONS

STATION/POSITION TIME  TEMP    WIND        PRES
                       AIR SEA DIR/SP/G
                 (UTC) (F)     (DEG/KT/KT) (MB)
THOMAS PT LIGHT  2100   46 47  290/ 14/ 17   N/A
BALT KEY BRIDGE  2048   47     280/ 22/ 27 1015.4R
COVE POINT       2048   46     320/ 10/ 15 1017.0R
LEWISETTA        2048   46 48  350/  2/  3 1016.2R
SOLOMONS ISLAND  2036   48 51  290/ 11/ 13   N/A
PINEY POINT      2048          340/ 22/ 24   N/A

$$




USA.gov is the U.S. government's official web portal to all federal, state and local government web resources and services.